GSAT0221 (GALILEO 25)

Last updated on Mon Dec 15 2025 00:02:41 GMT+0000 (Coordinated Universal Time)

1 43564U 18060A 25347.70393704 -.00000085 00000+0 00000+0 0 9993 2 43564 57.2276 346.7914 0006712 283.6018 76.3423 1.70475883 46009
UTC large
Height (km)
Speed (km/s)
/
Latitude / Longitude
Inclination (degrees)
Orbital Period (minutes)
Azimuth
Elevation
Range (km)
Doppler Factor

Next 0 passes for location: London (51.5072 / 0.1276)

Sorry there are no passes over London.